,,,PA_Meas_PMT16A,,PR_Meas_QMR101_102,,RH_Meas_QMH101,,SR_Meas_QMS101,,TA_Meas_QMH101,,GenWind,,GenWind,
date,time,status,PA,status,PR,status,RH,status,SR,status,TA,status,DirAvg,status,SpdAvg,
2011-10-14, 00:00:05,VALID,1002.43,VALID,0,VALID,92.2497,VALID,0,VALID,23.2524,VALID,163,VALID,0.851563,
2011-10-14, 00:01:05,VALID,1002.39,VALID,0,VALID,91.8225,VALID,0,VALID,23.2897,VALID,163,VALID,0.898438,
2011-10-14, 00:02:05,VALID,1002.43,VALID,0,VALID,91.3571,VALID,0,VALID,23.3305,VALID,163,VALID,0.936328,
2011-10-14, 00:03:05,VALID,1002.42,VALID,0,VALID,90.7696,VALID,0,VALID,23.3695,VALID,163,VALID,0.7125,
2011-10-14, 00:04:05,VALID,1002.43,VALID,0,VALID,90.0982,VALID,0.104696,VALID,23.4067,VALID,163,VALID,0.671484,
2011-10-14, 00:05:05,VALID,1002.4,VALID,0,VALID,89.5565,VALID,0,VALID,23.4475,VALID,128,VALID,0.896484,
2011-10-14, 00:06:05,VALID,1002.4,VALID,0,VALID,88.9232,VALID,0,VALID,23.4866,VALID,130,VALID,1.29258,
2011-10-14, 00:07:05,VALID,1002.38,VALID,0,VALID,88.412,VALID,0,VALID,23.5451,VALID,128,VALID,1.04492,
2011-10-14, 00:08:05,VALID,1002.39,VALID,0,VALID,88.1374,VALID,0,VALID,23.5256,VALID,128,VALID,0.971094,
2011-10-14, 00:09:05,VALID,1002.4,VALID,0,VALID,88.1221,VALID,0,VALID,23.5061,VALID,129,VALID,0.993359,
2011-10-14, 00:10:05,VALID,1002.38,VALID,0,VALID,88.1603,VALID,0,VALID,23.4866,VALID,149,VALID,1.19141,
2011-10-14, 00:11:05,VALID,1002.39,VALID,0,VALID,88.557,VALID,0,VALID,23.5061,VALID,179,VALID,1.56211,
2011-10-14, 00:12:05,VALID,1002.34,VALID,0,VALID,88.7096,VALID,0,VALID,23.5646,VALID,168,VALID,1.06641,
2011-10-14, 00:13:05,VALID,1002.33,VALID,0,VALID,88.8317,VALID,0.104696,VALID,23.5646,VALID,168,VALID,1.02461,
2011-10-14, 00:14:05,VALID,1002.31,VALID,0,VALID,88.7249,VALID,0,VALID,23.5646,VALID,168,VALID,0.902344,
2011-10-14, 00:15:05,VALID,1002.31,VALID,0,VALID,88.618,VALID,0,VALID,23.5646,VALID,168,VALID,0.794922,
2011-10-14, 00:16:05,VALID,1002.28,VALID,0,VALID,88.7935,VALID,0,VALID,23.5451,VALID,168,VALID,0.746875,
2011-10-14, 00:17:05,VALID,1002.3,VALID,0,VALID,88.8774,VALID,0,VALID,23.5451,VALID,168,VALID,0.471484,
2011-10-14, 00:18:05,VALID,1002.31,VALID,0,VALID,88.8698,VALID,0,VALID,23.5256,VALID,168,VALID,0.264062,
2011-10-14, 00:19:05,VALID,1002.27,VALID,0,VALID,88.9232,VALID,0,VALID,23.4866,VALID,168,VALID,0.177734,
2011-10-14, 00:20:05,VALID,1002.3,VALID,0,VALID,88.8927,VALID,0,VALID,23.4475,VALID,168,VALID,0,
2011-10-14, 00:21:05,VALID,1002.29,VALID,0,VALID,88.9232,VALID,0,VALID,23.428,VALID,168,VALID,0.0738281,
2011-10-14, 00:22:05,VALID,1002.3,VALID,0,VALID,88.9919,VALID,0,VALID,23.389,VALID,168,VALID,0,
2011-10-14, 00:23:05,VALID,1002.29,VALID,0,VALID,89.1597,VALID,0,VALID,23.3695,VALID,168,VALID,0.053125,
2011-10-14, 00:24:05,VALID,1002.29,VALID,0,VALID,89.2132,VALID,0,VALID,23.35,VALID,168,VALID,0.309375,
2011-10-14, 00:25:05,VALID,1002.3,VALID,0,VALID,89.3505,VALID,0,VALID,23.35,VALID,168,VALID,0.206641,
2011-10-14, 00:26:05,VALID,1002.28,VALID,0,VALID,89.4573,VALID,0,VALID,23.2897,VALID,168,VALID,0.269922,
2011-10-14, 00:27:05,VALID,1002.3,VALID,0,VALID,89.7014,VALID,0,VALID,23.2719,VALID,168,VALID,0.391797,
2011-10-14, 00:28:05,VALID,1002.31,VALID,0,VALID,89.9151,VALID,0,VALID,23.2117,VALID,168,VALID,0.454297,
2011-10-14, 00:29:05,VALID,1002.31,VALID,0,VALID,90.0448,VALID,0,VALID,23.1726,VALID,168,VALID,0.437891,
2011-10-14, 00:30:05,VALID,1002.28,VALID,0,VALID,90.1134,VALID,0,VALID,23.1744,VALID,168,VALID,0.400781,
2011-10-14, 00:31:05,VALID,1002.27,VALID,0,VALID,90.1287,VALID,0,VALID,23.1549,VALID,168,VALID,0.325391,
2011-10-14, 00:32:05,VALID,1002.29,VALID,0,VALID,90.266,VALID,0,VALID,23.1159,VALID,168,VALID,0.158203,
2011-10-14, 00:33:05,VALID,1002.27,VALID,0,VALID,90.472,VALID,0,VALID,23.0964,VALID,168,VALID,0.0640625,
2011-10-14, 00:34:05,VALID,1002.24,VALID,0,VALID,90.5178,VALID,0,VALID,23.0556,VALID,168,VALID,0,
2011-10-14, 00:35:05,VALID,1002.18,VALID,0,VALID,90.3576,VALID,0,VALID,23.0166,VALID,168,VALID,0.285547,
2011-10-14, 00:36:05,VALID,1002.18,VALID,0,VALID,90.5178,VALID,0,VALID,22.9776,VALID,168,VALID,0.215625,
2011-10-14, 00:37:05,VALID,1002.15,VALID,0,VALID,90.6323,VALID,0,VALID,22.9403,VALID,167,VALID,0.548828,
2011-10-14, 00:38:05,VALID,1002.11,VALID,0,VALID,90.0677,VALID,0,VALID,22.9615,VALID,127,VALID,0.8375,
2011-10-14, 00:39:05,VALID,1002.12,VALID,0,VALID,89.3886,VALID,0,VALID,23.0396,VALID,127,VALID,0.430078,
2011-10-14, 00:40:05,VALID,1002.09,VALID,0,VALID,89.0911,VALID,0,VALID,23.0786,VALID,127,VALID,0.323438,
2011-10-14, 00:41:05,VALID,1002.07,VALID,0,VALID,89.0529,VALID,0,VALID,23.0769,VALID,127,VALID,0.526172,
2011-10-14, 00:42:05,VALID,1002.05,VALID,0,VALID,88.9766,VALID,0,VALID,23.1176,VALID,127,VALID,0.500391,
2011-10-14, 00:43:05,VALID,1002.05,VALID,0,VALID,88.9232,VALID,0,VALID,23.1176,VALID,127,VALID,0.328125,
2011-10-14, 00:44:05,VALID,1002.07,VALID,0,VALID,88.9003,VALID,0,VALID,23.1371,VALID,127,VALID,0.452734,
2011-10-14, 00:45:05,VALID,1002.04,VALID,0,VALID,88.8011,VALID,0,VALID,23.1566,VALID,127,VALID,0.187891,
2011-10-14, 00:46:05,VALID,1002.03,VALID,0,VALID,88.7249,VALID,0,VALID,23.1371,VALID,127,VALID,0.00195313,
2011-10-14, 00:47:05,VALID,1002,VALID,0,VALID,88.8774,VALID,0,VALID,23.1371,VALID,127,VALID,0.242969,
2011-10-14, 00:48:05,VALID,1001.99,VALID,0,VALID,89.4573,VALID,0,VALID,23.0981,VALID,127,VALID,0.437891,
2011-10-14, 00:49:05,VALID,1002,VALID,0,VALID,89.8769,VALID,0,VALID,23.0573,VALID,127,VALID,0.323828,
2011-10-14, 00:50:05,VALID,1001.99,VALID,0,VALID,90.0448,VALID,0,VALID,23.0201,VALID,127,VALID,0.198437,
2011-10-14, 00:51:05,VALID,1001.98,VALID,0,VALID,90.1897,VALID,0,VALID,22.9811,VALID,127,VALID,0.168359,
2011-10-14, 00:52:05,VALID,1001.96,VALID,0,VALID,90.2889,VALID,0,VALID,22.9793,VALID,127,VALID,0.0410156,
2011-10-14, 00:53:05,VALID,1001.97,VALID,0,VALID,90.4034,VALID,0,VALID,22.9598,VALID,127,VALID,0,
2011-10-14, 00:54:05,VALID,1001.94,VALID,0,VALID,90.556,VALID,0,VALID,22.919,VALID,127,VALID,0.0296875,
2011-10-14, 00:55:05,VALID,1001.95,VALID,0,VALID,90.7391,VALID,0,VALID,22.9013,VALID,127,VALID,0,
2011-10-14, 00:56:05,VALID,1002,VALID,0,VALID,90.8383,VALID,0,VALID,22.8623,VALID,127,VALID,0,
2011-10-14, 00:57:05,VALID,1002,VALID,0,VALID,90.9222,VALID,0,VALID,22.8232,VALID,127,VALID,0,
2011-10-14, 00:58:05,VALID,1002.02,VALID,0,VALID,90.9603,VALID,0,VALID,22.7825,VALID,127,VALID,0.207031,
2011-10-14, 00:59:05,VALID,1001.99,VALID,0,VALID,90.9451,VALID,0,VALID,22.7647,VALID,127,VALID,0.301562,
2011-10-14, 01:00:05,VALID,1002.03,VALID,0,VALID,90.9298,VALID,0,VALID,22.7452,VALID,127,VALID,0.366406,
2011-10-14, 01:01:05,VALID,1001.99,VALID,0,VALID,90.9222,VALID,0,VALID,22.7647,VALID,127,VALID,0.495313,
2011-10-14, 01:02:05,VALID,1001.97,VALID,0,VALID,90.8535,VALID,0,VALID,22.8037,VALID,127,VALID,0.587891,
2011-10-14, 01:03:05,VALID,1001.97,VALID,0,VALID,90.2889,VALID,0,VALID,22.802,VALID,127,VALID,0.925781,
2011-10-14, 01:04:05,VALID,1001.93,VALID,0,VALID,89.7091,VALID,0,VALID,22.8605,VALID,127,VALID,0.850391,
2011-10-14, 01:05:05,VALID,1001.91,VALID,0,VALID,89.3123,VALID,0,VALID,22.9403,VALID,127,VALID,0.624219,
2011-10-14, 01:06:05,VALID,1001.88,VALID,0,VALID,89.114,VALID,0,VALID,22.9793,VALID,127,VALID,0.535156,
2011-10-14, 01:07:04,VALID,1001.87,VALID,0,VALID,89.03,VALID,0,VALID,23.0006,VALID,127,VALID,0.472656,
2011-10-14, 01:08:04,VALID,1001.86,VALID,0,VALID,89.2589,VALID,0,VALID,23.0006,VALID,127,VALID,0.350781,
2011-10-14, 01:09:04,VALID,1001.85,VALID,0,VALID,89.3657,VALID,0,VALID,23.0006,VALID,127,VALID,0.314453,
2011-10-14, 01:10:04,VALID,1001.84,VALID,0,VALID,89.3734,VALID,0,VALID,22.9988,VALID,127,VALID,0.201953,
2011-10-14, 01:11:04,VALID,1001.84,VALID,0,VALID,89.4573,VALID,0,VALID,23.0006,VALID,127,VALID,0.230859,
2011-10-14, 01:12:04,VALID,1001.81,VALID,0,VALID,89.5946,VALID,0,VALID,23.0006,VALID,127,VALID,0.439453,
2011-10-14, 01:13:04,VALID,1001.83,VALID,0,VALID,89.526,VALID,0,VALID,22.9598,VALID,127,VALID,0.631641,
2011-10-14, 01:14:04,VALID,1001.81,VALID,0,VALID,89.5794,VALID,0,VALID,22.9403,VALID,127,VALID,0.642187,
2011-10-14, 01:15:04,VALID,1001.82,VALID,0,VALID,89.5412,VALID,0,VALID,22.9403,VALID,127,VALID,0.68125,
2011-10-14, 01:16:04,VALID,1001.79,VALID,0,VALID,89.5946,VALID,0,VALID,22.9615,VALID,127,VALID,0.651172,
2011-10-14, 01:17:04,VALID,1001.74,VALID,0,VALID,89.7167,VALID,0,VALID,22.9598,VALID,127,VALID,0.532812,
2011-10-14, 01:18:04,VALID,1001.75,VALID,0,VALID,89.5183,VALID,0,VALID,22.9615,VALID,127,VALID,0.464844,
2011-10-14, 01:19:04,VALID,1001.74,VALID,0,VALID,89.4115,VALID,0,VALID,22.9811,VALID,127,VALID,0.769141,
2011-10-14, 01:20:04,VALID,1001.72,VALID,0,VALID,89.2513,VALID,0,VALID,23.0006,VALID,127,VALID,0.327344,
2011-10-14, 01:21:04,VALID,1001.71,VALID,0,VALID,89.3581,VALID,0,VALID,22.9793,VALID,127,VALID,0.342578,
2011-10-14, 01:22:04,VALID,1001.69,VALID,0,VALID,89.4878,VALID,0,VALID,23.0006,VALID,127,VALID,0.461328,
2011-10-14, 01:23:04,VALID,1001.66,VALID,0,VALID,89.6175,VALID,0,VALID,22.9811,VALID,127,VALID,0.530078,
2011-10-14, 01:24:04,VALID,1001.66,VALID,0,VALID,89.8311,VALID,0,VALID,22.9598,VALID,127,VALID,0.398828,
2011-10-14, 01:25:04,VALID,1001.62,VALID,0,VALID,90.0677,VALID,0,VALID,22.9615,VALID,127,VALID,0.588672,
2011-10-14, 01:26:04,VALID,1001.62,VALID,0,VALID,90.06,VALID,0,VALID,22.9403,VALID,127,VALID,0.644922,
2011-10-14, 01:27:04,VALID,1001.6,VALID,0,VALID,90.144,VALID,0,VALID,22.942,VALID,127,VALID,0.680078,
2011-10-14, 01:28:04,VALID,1001.56,VALID,0,VALID,90.2279,VALID,0,VALID,22.9225,VALID,127,VALID,0.718359,
2011-10-14, 01:29:04,VALID,1001.51,VALID,0,VALID,90.3347,VALID,0,VALID,22.9225,VALID,127,VALID,0.762109,
2011-10-14, 01:30:04,VALID,1001.52,VALID,0,VALID,90.4339,VALID,0,VALID,22.903,VALID,127,VALID,0.71875,
2011-10-14, 01:31:04,VALID,1001.5,VALID,0,VALID,90.6475,VALID,0,VALID,22.8835,VALID,127,VALID,0.496484,
2011-10-14, 01:32:04,VALID,1001.5,VALID,0,VALID,90.6857,VALID,0,VALID,22.8835,VALID,127,VALID,0.291016,
2011-10-14, 01:33:04,VALID,1001.5,VALID,0,VALID,90.7314,VALID,0,VALID,22.8623,VALID,127,VALID,0.119141,
2011-10-14, 01:34:04,VALID,1001.47,VALID,0,VALID,90.823,VALID,0,VALID,22.8445,VALID,127,VALID,0.264844,
2011-10-14, 01:35:04,VALID,1001.47,VALID,0,VALID,90.9146,VALID,0,VALID,22.8445,VALID,127,VALID,0.0316406,
2011-10-14, 01:36:04,VALID,1001.46,VALID,0,VALID,90.9298,VALID,0,VALID,22.8232,VALID,127,VALID,0.229297,
2011-10-14, 01:37:04,VALID,1001.47,VALID,0,VALID,91.0595,VALID,0,VALID,22.8445,VALID,127,VALID,0.178125,
2011-10-14, 01:38:04,VALID,1001.46,VALID,0,VALID,91.09,VALID,0,VALID,22.7842,VALID,127,VALID,0.163281,
2011-10-14, 01:39:04,VALID,1001.44,VALID,0,VALID,91.1434,VALID,0,VALID,22.8055,VALID,127,VALID,0.487891,
2011-10-14, 01:40:04,VALID,1001.44,VALID,0,VALID,91.2197,VALID,0,VALID,22.7842,VALID,127,VALID,0.432422,
2011-10-14, 01:41:04,VALID,1001.42,VALID,0,VALID,91.174,VALID,0,VALID,22.8055,VALID,127,VALID,0.389062,
2011-10-14, 01:42:04,VALID,1001.42,VALID,0,VALID,91.1358,VALID,0,VALID,22.7842,VALID,127,VALID,0.254297,
2011-10-14, 01:43:04,VALID,1001.4,VALID,0,VALID,91.029,VALID,0,VALID,22.7842,VALID,127,VALID,0.444141,
2011-10-14, 01:44:04,VALID,1001.41,VALID,0,VALID,90.9985,VALID,0,VALID,22.825,VALID,127,VALID,0.634766,
2011-10-14, 01:45:04,VALID,1001.41,VALID,0,VALID,90.7391,VALID,0,VALID,22.8445,VALID,127,VALID,0.633594,
2011-10-14, 01:46:04,VALID,1001.42,VALID,0,VALID,90.4491,VALID,0,VALID,22.8818,VALID,127,VALID,0.410547,
2011-10-14, 01:47:04,VALID,1001.36,VALID,0,VALID,90.0982,VALID,0,VALID,22.903,VALID,127,VALID,0.000390625,
2011-10-14, 01:48:04,VALID,1001.38,VALID,0,VALID,90.0295,VALID,0,VALID,22.942,VALID,127,VALID,0.378906,
2011-10-14, 01:49:04,VALID,1001.37,VALID,0,VALID,89.9761,VALID,0,VALID,22.9208,VALID,127,VALID,0.310547,
2011-10-14, 01:50:04,VALID,1001.38,VALID,0,VALID,89.854,VALID,0,VALID,22.9403,VALID,127,VALID,0.347656,
2011-10-14, 01:51:04,VALID,1001.38,VALID,0,VALID,90.06,VALID,0,VALID,22.9403,VALID,127,VALID,0.579297,
2011-10-14, 01:52:04,VALID,1001.32,VALID,0,VALID,90.0982,VALID,0,VALID,22.9403,VALID,127,VALID,0.4375,
2011-10-14, 01:53:04,VALID,1001.29,VALID,0,VALID,90.2203,VALID,0,VALID,22.9615,VALID,127,VALID,0.277734,
2011-10-14, 01:54:04,VALID,1001.3,VALID,0,VALID,90.3957,VALID,0,VALID,22.9615,VALID,127,VALID,0,
2011-10-14, 01:55:04,VALID,1001.25,VALID,0,VALID,90.617,VALID,0,VALID,22.9208,VALID,127,VALID,0,
2011-10-14, 01:56:04,VALID,1001.25,VALID,0,VALID,90.8383,VALID,0,VALID,22.942,VALID,127,VALID,0,
2011-10-14, 01:57:04,VALID,1001.23,VALID,0,VALID,91.0137,VALID,0,VALID,22.903,VALID,127,VALID,0,
2011-10-14, 01:58:04,VALID,1001.21,VALID,0,VALID,91.1358,VALID,0,VALID,22.8835,VALID,127,VALID,0.0261719,
2011-10-14, 01:59:04,VALID,1001.21,VALID,0,VALID,91.1816,VALID,0,VALID,22.8427,VALID,127,VALID,0.170312,
2011-10-14, 02:00:04,VALID,1001.2,VALID,0,VALID,91.235,VALID,0,VALID,22.8232,VALID,127,VALID,0.297656,
2011-10-14, 02:01:04,VALID,1001.23,VALID,0,VALID,91.3037,VALID,0,VALID,22.825,VALID,127,VALID,0.400391,
2011-10-14, 02:02:04,VALID,1001.22,VALID,0,VALID,91.3418,VALID,0,VALID,22.8037,VALID,127,VALID,0.167578,
2011-10-14, 02:03:04,VALID,1001.22,VALID,0,VALID,91.3342,VALID,0,VALID,22.7842,VALID,127,VALID,0.185937,
2011-10-14, 02:04:04,VALID,1001.25,VALID,0,VALID,91.3418,VALID,0,VALID,22.8037,VALID,127,VALID,0.216016,
2011-10-14, 02:05:04,VALID,1001.26,VALID,0,VALID,91.3647,VALID,0,VALID,22.8037,VALID,127,VALID,0.594531,
2011-10-14, 02:06:04,VALID,1001.26,VALID,0,VALID,91.3876,VALID,0,VALID,22.8445,VALID,127,VALID,0.799609,
2011-10-14, 02:07:04,VALID,1001.24,VALID,0,VALID,91.4028,VALID,0,VALID,22.841,VALID,127,VALID,0.597266,
2011-10-14, 02:08:04,VALID,1001.2,VALID,0,VALID,91.4181,VALID,0,VALID,22.8623,VALID,127,VALID,0.45,
2011-10-14, 02:09:04,VALID,1001.18,VALID,0,VALID,91.441,VALID,0,VALID,22.8623,VALID,127,VALID,0.332422,
2011-10-14, 02:10:04,VALID,1001.17,VALID,0,VALID,91.4639,VALID,0,VALID,22.841,VALID,127,VALID,0.275391,
2011-10-14, 02:11:04,VALID,1001.17,VALID,0,VALID,91.4944,VALID,0,VALID,22.8215,VALID,127,VALID,0.209375,
2011-10-14, 02:12:04,VALID,1001.16,VALID,0,VALID,91.5173,VALID,0,VALID,22.841,VALID,127,VALID,0.317969,
2011-10-14, 02:13:04,VALID,1001.19,VALID,0,VALID,91.5326,VALID,0,VALID,22.802,VALID,127,VALID,0.420703,
2011-10-14, 02:14:04,VALID,1001.21,VALID,0,VALID,91.5402,VALID,0,VALID,22.802,VALID,127,VALID,0.5875,
2011-10-14, 02:15:04,VALID,1001.2,VALID,0,VALID,91.502,VALID,0,VALID,22.8215,VALID,127,VALID,0.305469,
2011-10-14, 02:16:04,VALID,1001.21,VALID,0,VALID,91.5173,VALID,0,VALID,22.8427,VALID,127,VALID,0.315234,
2011-10-14, 02:17:04,VALID,1001.25,VALID,0,VALID,91.5478,VALID,0,VALID,22.8623,VALID,127,VALID,0.382031,
2011-10-14, 02:18:04,VALID,1001.25,VALID,0,VALID,91.5402,VALID,0,VALID,22.8427,VALID,127,VALID,0.317969,
2011-10-14, 02:19:04,VALID,1001.25,VALID,0,VALID,91.6012,VALID,0,VALID,22.8232,VALID,127,VALID,0.329297,
2011-10-14, 02:20:04,VALID,1001.27,VALID,0,VALID,91.6394,VALID,0,VALID,22.8232,VALID,127,VALID,0.212891,
2011-10-14, 02:21:04,VALID,1001.26,VALID,0,VALID,91.6851,VALID,0,VALID,22.802,VALID,127,VALID,0,
2011-10-14, 02:22:04,VALID,1001.26,VALID,0,VALID,91.7157,VALID,0,VALID,22.7825,VALID,127,VALID,0,
2011-10-14, 02:23:04,VALID,1001.26,VALID,0,VALID,91.7462,VALID,0,VALID,22.7825,VALID,127,VALID,0.112109,
2011-10-14, 02:24:04,VALID,1001.23,VALID,0,VALID,91.7767,VALID,0,VALID,22.7647,VALID,127,VALID,0.237891,
2011-10-14, 02:25:04,VALID,1001.25,VALID,0,VALID,91.7309,VALID,0,VALID,22.7435,VALID,127,VALID,0.445703,
2011-10-14, 02:26:04,VALID,1001.23,VALID,0,VALID,91.6546,VALID,0,VALID,22.7452,VALID,127,VALID,0.520703,
2011-10-14, 02:27:04,VALID,1001.21,VALID,0,VALID,91.6012,VALID,0,VALID,22.7647,VALID,127,VALID,0.284375,
2011-10-14, 02:28:04,VALID,1001.19,VALID,0,VALID,91.5402,VALID,0,VALID,22.7435,VALID,127,VALID,0.563281,
2011-10-14, 02:29:04,VALID,1001.19,VALID,0,VALID,91.4639,VALID,0,VALID,22.7452,VALID,127,VALID,0.791016,
2011-10-14, 02:30:04,VALID,1001.22,VALID,0,VALID,91.3266,VALID,0,VALID,22.7435,VALID,127,VALID,0.719531,
2011-10-14, 02:31:04,VALID,1001.23,VALID,0,VALID,91.1663,VALID,0,VALID,22.7842,VALID,127,VALID,0.583594,
2011-10-14, 02:32:04,VALID,1001.26,VALID,0,VALID,91.0748,VALID,0,VALID,22.7842,VALID,127,VALID,0.337109,
2011-10-14, 02:33:04,VALID,1001.29,VALID,0,VALID,90.9832,VALID,0,VALID,22.7435,VALID,127,VALID,0.281641,
2011-10-14, 02:34:04,VALID,1001.32,VALID,0,VALID,90.9451,VALID,0,VALID,22.7435,VALID,127,VALID,0.274609,
2011-10-14, 02:35:04,VALID,1001.33,VALID,0,VALID,90.968,VALID,0.104696,VALID,22.7435,VALID,127,VALID,0.383594,
2011-10-14, 02:36:04,VALID,1001.35,VALID,0,VALID,90.9832,VALID,0,VALID,22.7842,VALID,127,VALID,0.370313,
2011-10-14, 02:37:04,VALID,1001.34,VALID,0,VALID,91.0137,VALID,0,VALID,22.8037,VALID,127,VALID,0.602734,
2011-10-14, 02:38:04,VALID,1001.36,VALID,0,VALID,90.9909,VALID,0,VALID,22.802,VALID,127,VALID,0.488281,
2011-10-14, 02:39:04,VALID,1001.35,VALID,0,VALID,90.9451,VALID,0,VALID,22.8232,VALID,127,VALID,0.673828,
2011-10-14, 02:40:04,VALID,1001.34,VALID,0,VALID,90.9909,VALID,0,VALID,22.8232,VALID,127,VALID,0.890625,
2011-10-14, 02:41:04,VALID,1001.33,VALID,0,VALID,90.968,VALID,0,VALID,22.8427,VALID,127,VALID,0.998828,
2011-10-14, 02:42:04,VALID,1001.32,VALID,0,VALID,90.8154,VALID,0,VALID,22.8623,VALID,127,VALID,1.02266,
2011-10-14, 02:43:04,VALID,1001.3,VALID,0,VALID,90.6246,VALID,0,VALID,22.9013,VALID,127,VALID,0.720703,
2011-10-14, 02:44:04,VALID,1001.3,VALID,0,VALID,90.472,VALID,0,VALID,22.9225,VALID,127,VALID,0.56875,
2011-10-14, 02:45:04,VALID,1001.33,VALID,0,VALID,90.4186,VALID,0,VALID,22.9013,VALID,127,VALID,0.508984,
2011-10-14, 02:46:04,VALID,1001.29,VALID,0,VALID,90.3652,VALID,0,VALID,22.9013,VALID,127,VALID,0.314063,
2011-10-14, 02:47:04,VALID,1001.31,VALID,0,VALID,90.35,VALID,0,VALID,22.8818,VALID,127,VALID,0.410156,
2011-10-14, 02:48:04,VALID,1001.33,VALID,0,VALID,90.3118,VALID,0,VALID,22.8623,VALID,127,VALID,0.432031,
2011-10-14, 02:49:04,VALID,1001.3,VALID,0,VALID,90.205,VALID,0,VALID,22.8427,VALID,127,VALID,0.785547,
2011-10-14, 02:50:04,VALID,1001.3,VALID,0,VALID,90.0753,VALID,0,VALID,22.8427,VALID,127,VALID,0.896875,
2011-10-14, 02:51:04,VALID,1001.3,VALID,0,VALID,89.8846,VALID,0,VALID,22.8623,VALID,127,VALID,0.480469,
2011-10-14, 02:52:04,VALID,1001.32,VALID,0,VALID,89.7549,VALID,0,VALID,22.8623,VALID,127,VALID,0.455078,
2011-10-14, 02:53:04,VALID,1001.32,VALID,0,VALID,89.7014,VALID,0,VALID,22.8623,VALID,127,VALID,0.307422,
2011-10-14, 02:54:04,VALID,1001.32,VALID,0,VALID,89.7472,VALID,0,VALID,22.8623,VALID,127,VALID,1.02813,
2011-10-14, 02:55:04,VALID,1001.33,VALID,0,VALID,89.6633,VALID,0,VALID,22.8818,VALID,127,VALID,0.516406,
2011-10-14, 02:56:04,VALID,1001.34,VALID,0,VALID,89.5641,VALID,0,VALID,22.8818,VALID,127,VALID,0.507422,
2011-10-14, 02:57:04,VALID,1001.33,VALID,0,VALID,89.6099,VALID,0,VALID,22.8623,VALID,127,VALID,0.861719,
2011-10-14, 02:58:04,VALID,1001.36,VALID,0,VALID,89.7014,VALID,0,VALID,22.8623,VALID,127,VALID,0.494922,
2011-10-14, 02:59:04,VALID,1001.39,VALID,0,VALID,89.8159,VALID,0,VALID,22.8232,VALID,127,VALID,0.907422,
2011-10-14, 03:00:04,VALID,1001.38,VALID,0,VALID,89.8388,VALID,0,VALID,22.8232,VALID,127,VALID,0.545313,
2011-10-14, 03:01:04,VALID,1001.38,VALID,0,VALID,89.7396,VALID,0,VALID,22.7825,VALID,127,VALID,0.565234,
2011-10-14, 03:02:04,VALID,1001.4,VALID,0,VALID,89.8235,VALID,0,VALID,22.7647,VALID,127,VALID,0.333984,
2011-10-14, 03:03:04,VALID,1001.35,VALID,0,VALID,90.0219,VALID,0,VALID,22.7452,VALID,127,VALID,0.395703,
2011-10-14, 03:04:04,VALID,1001.37,VALID,0,VALID,90.144,VALID,0,VALID,22.7062,VALID,127,VALID,0.608203,
2011-10-14, 03:05:04,VALID,1001.35,VALID,0,VALID,90.2737,VALID,0,VALID,22.7257,VALID,127,VALID,0.56875,
2011-10-14, 03:06:04,VALID,1001.36,VALID,0,VALID,90.1745,VALID,0,VALID,22.7257,VALID,127,VALID,0.396094,
2011-10-14, 03:07:04,VALID,1001.37,VALID,0,VALID,90.2203,VALID,0,VALID,22.7452,VALID,127,VALID,0.651172,
2011-10-14, 03:08:04,VALID,1001.42,VALID,0,VALID,90.1974,VALID,0,VALID,22.7045,VALID,127,VALID,0.441797,
2011-10-14, 03:09:04,VALID,1001.43,VALID,0,VALID,90.1287,VALID,0,VALID,22.7045,VALID,127,VALID,0.408203,
2011-10-14, 03:10:04,VALID,1001.44,VALID,0,VALID,90.1211,VALID,0,VALID,22.6655,VALID,127,VALID,0.448828,
2011-10-14, 03:11:04,VALID,1001.44,VALID,0,VALID,90.1516,VALID,0,VALID,22.6672,VALID,127,VALID,0.39375,
2011-10-14, 03:12:04,VALID,1001.47,VALID,0,VALID,90.2737,VALID,0,VALID,22.6282,VALID,127,VALID,0.240234,
2011-10-14, 03:13:04,VALID,1001.46,VALID,0,VALID,90.4415,VALID,0,VALID,22.5892,VALID,127,VALID,0.189844,
2011-10-14, 03:14:04,VALID,1001.44,VALID,0,VALID,90.6246,VALID,0,VALID,22.5696,VALID,127,VALID,0.522656,
2011-10-14, 03:15:04,VALID,1001.45,VALID,0,VALID,90.8306,VALID,0,VALID,22.5306,VALID,127,VALID,0.446484,
2011-10-14, 03:16:04,VALID,1001.45,VALID,0,VALID,91.1206,VALID,0,VALID,22.5306,VALID,127,VALID,0.9,
2011-10-14, 03:17:04,VALID,1001.42,VALID,0,VALID,91.3571,VALID,0,VALID,22.5111,VALID,126,VALID,0.785937,
2011-10-14, 03:18:04,VALID,1001.41,VALID,0,VALID,91.3876,VALID,0,VALID,22.4721,VALID,126,VALID,0.565625,
2011-10-14, 03:19:04,VALID,1001.39,VALID,0,VALID,91.4715,VALID,0,VALID,22.4526,VALID,126,VALID,0.596094,
2011-10-14, 03:20:04,VALID,1001.4,VALID,0,VALID,91.5554,VALID,0,VALID,22.4526,VALID,126,VALID,0.541016,
2011-10-14, 03:21:04,VALID,1001.41,VALID,0,VALID,91.5707,VALID,0,VALID,22.4331,VALID,126,VALID,0.480859,
2011-10-14, 03:22:04,VALID,1001.37,VALID,0,VALID,91.7004,VALID,0,VALID,22.3924,VALID,126,VALID,0.582031,
2011-10-14, 03:23:04,VALID,1001.39,VALID,0,VALID,91.6775,VALID,0.104696,VALID,22.3924,VALID,126,VALID,0.498437,
2011-10-14, 03:24:04,VALID,1001.41,VALID,0,VALID,91.7691,VALID,0.104696,VALID,22.3729,VALID,126,VALID,0.596484,
2011-10-14, 03:25:04,VALID,1001.41,VALID,0,VALID,91.8072,VALID,0,VALID,22.4136,VALID,126,VALID,0.490234,
2011-10-14, 03:26:04,VALID,1001.42,VALID,0,VALID,91.8988,VALID,0,VALID,22.4119,VALID,53,VALID,0.903906,
2011-10-14, 03:27:04,VALID,1001.43,VALID,0,VALID,91.9217,VALID,0,VALID,22.4721,VALID,53,VALID,0.600391,
2011-10-14, 03:28:04,VALID,1001.43,VALID,0,VALID,91.9445,VALID,0.104696,VALID,22.4899,VALID,53,VALID,0.613672,
2011-10-14, 03:29:04,VALID,1001.45,VALID,0,VALID,91.8835,VALID,0,VALID,22.5306,VALID,53,VALID,0.645312,
2011-10-14, 03:30:04,VALID,1001.45,VALID,0,VALID,91.7843,VALID,0,VALID,22.5306,VALID,53,VALID,0.85625,
2011-10-14, 03:31:04,VALID,1001.46,VALID,0,VALID,91.7233,VALID,0.104696,VALID,22.5094,VALID,35,VALID,0.972656,
2011-10-14, 03:32:04,VALID,1001.48,VALID,0,VALID,91.7538,VALID,0.104696,VALID,22.4704,VALID,35,VALID,0.927344,
2011-10-14, 03:33:04,VALID,1001.45,VALID,0,VALID,91.853,VALID,0,VALID,22.4721,VALID,35,VALID,0.862891,
2011-10-14, 03:34:04,VALID,1001.43,VALID,0,VALID,91.8683,VALID,0,VALID,22.4331,VALID,35,VALID,0.832031,
2011-10-14, 03:35:04,VALID,1001.43,VALID,0,VALID,91.8301,VALID,0,VALID,22.3746,VALID,35,VALID,0.833203,
2011-10-14, 03:36:04,VALID,1001.41,VALID,0,VALID,91.7996,VALID,0.104696,VALID,22.2949,VALID,35,VALID,0.697656,
2011-10-14, 03:37:04,VALID,1001.38,VALID,0,VALID,92.0056,VALID,0,VALID,22.2771,VALID,35,VALID,0.447266,
2011-10-14, 03:38:04,VALID,1001.39,VALID,0,VALID,92.1277,VALID,0.104696,VALID,22.2576,VALID,35,VALID,0.226172,
2011-10-14, 03:39:04,VALID,1001.4,VALID,0,VALID,92.1963,VALID,0,VALID,22.2186,VALID,35,VALID,0.210156,
2011-10-14, 03:40:04,VALID,1001.39,VALID,0,VALID,92.3108,VALID,0,VALID,22.1779,VALID,35,VALID,0.349219,
2011-10-14, 03:41:04,VALID,1001.39,VALID,0,VALID,92.4252,VALID,0.104696,VALID,22.199,VALID,35,VALID,0.478516,
2011-10-14, 03:42:04,VALID,1001.39,VALID,0,VALID,92.5549,VALID,0,VALID,22.1584,VALID,35,VALID,0.474609,
2011-10-14, 03:43:04,VALID,1001.36,VALID,0,VALID,92.6541,VALID,0,VALID,22.1389,VALID,35,VALID,0.505859,
2011-10-14, 03:44:04,VALID,1001.37,VALID,0,VALID,92.7533,VALID,0,VALID,22.0998,VALID,35,VALID,0.418359,